Regional Weather Roundup
Issued by NWS Lake Charles, LA

Home | Current Version | Previous Version | Text Only | Print | Product List | Glossary On
Versions: 1 2 3 4 5 6 7 8 9 10 11 12 13 14 15 16 17 18 19 20 21 22 23 24 25 26 27 28 29 30 31 32 33 34 35 36 37 38 39 40 41 42 43 44 45 46 47 48 49 50
046
ASUS44 KLCH 241410
RWRLCH
REGIONAL WEATHER ROUNDUP
NATIONAL WEATHER SERVICE LAKE CHARLES LA
900 AM CDT WED MAY 24 2017

Note: "fair" indicates few or no clouds below 12,000 feet with no
significant weather and/or obstructions to visibility.


ACROSS SOUTHEAST TEXAS

CITY           SKY/WX    TMP DP  RH WIND       PRES   REMARKS
BEAUMONT       SUNNY     66  56  70 NW14      29.81S
BEAUMONT CITY  FAIR      66  57  73 MISG      29.82S
ORANGE         SUNNY     64  59  84 NW6       29.82S
JASPER           N/A     63  58  84 NW7       29.83S
$$

ACROSS CENTRAL LOUISIANA

CITY           SKY/WX    TMP DP  RH WIND       PRES   REMARKS
LEESVILLE      SUNNY     65  57  76 NW10      29.77R
FULLERTON      FAIR      65  57  75 VRB3      29.75R
ALEXANDRIA INT SUNNY     64  57  78 NW14      29.74S
ESLER FIELD    SUNNY     64  58  80 W9        29.74S
DERIDDER       FAIR      65  56  71 NW13      29.80S
OAKDALE        SUNNY     65  58  76 NW6       29.76S
OPELOUSAS      FAIR      65  58  79 W8        29.75S
$$

ACROSS SOUTHWEST AND SOUTH CENTRAL LOUISIANA

CITY           SKY/WX    TMP DP  RH WIND       PRES   REMARKS
SULPHUR        SUNNY     66  59  78 NW10      29.80S
LAKE CHARLES   MOSUNNY   66  58  75 W9        29.79S
CHENNAULT INT  NOT AVBL
CAMERON PHI    NOT AVBL
DEQUINCY       FAIR      64  57  79 NW8       29.80S
JENNINGS       FAIR      64  58  80 NW13      29.77F
LAFAYETTE      SUNNY     67  56  67 NW14      29.75R
NEW IBERIA     SUNNY     68  54  60 NW15      29.75R
ABBEVILLE      FAIR      66  59  77 NW15G21   29.76R
PATTERSON      SUNNY     69  57  65 NW14      29.73R
SALT POINT       N/A     68  56  65 N10       29.71S
$$

SELECTED SITES ACROSS THE REGION

CITY           SKY/WX    TMP DP  RH WIND       PRES   REMARKS
HOUSTON BUSH   SUNNY     66  54  65 W12       29.85S
HOUSTON HOBBY  SUNNY     67  54  63 NW10      29.85R
GALVESTON      SUNNY     68  58  70 NW14      29.85S
COLLEGE STAT   SUNNY     63  54  72 NW10      29.86S
CONROE         SUNNY     64  55  72 W7        29.85R
HUNTSVILLE     SUNNY     64  53  67 NW8       29.85R
LUFKIN         SUNNY     61  55  81 W8        29.82S
SHREVEPORT     SUNNY     62  54  74 NW13      29.77R
MONROE         SUNNY     63  55  75 W13G23    29.71F
NATCHEZ MS     SUNNY     64  57  78 NW8       29.72F
BATON ROUGE    MOSUNNY   66  55  67 NW10G20   29.71F
N.O. INTL ARPT PTSUNNY   68  57  68 NW16      29.70R
SLIDELL        PTSUNNY   69  56  62 NW8G22    29.67R
$$

MARINE REPORTS

STATION/POSITION TIME  SKY/WX   TEMP    WIND        PRES    VSBY
                                AIR SEA DIR/SP/G
                 (UTC)          (F)     (DEG/KT/KT) (MB)    (MI)
BUOY 30 S HIGH I 1250            67 77  330/ 17/ 21 1009.9
WVE H/P(F/S)=  2/ 4

SEA RIM ST PARK  1400            64     330/ 10/ 12 1010.3S
PORT ARTHUR      1348            65 78  330/  9/ 14 1009.6F
SABINE PASS N    1348            65 81  310/  9/ 14 1011.0S
TEXAS POINT      NOT AVBL
CALCASIEU PASS   1348            64 77  330/ 12/ 15   N/A
LK CHARLES BEACH 1348            64 76              1009.1F
MARSH ISLAND     1300            67                   N/A
FRESH WATER LOCK 1348            66 80  300/ 15/ 23 1007.4R
AMERADA PASS     1348            67 73  310/ 11/ 15 1006.2R
$$




USA.gov is the U.S. government's official web portal to all federal, state and local government web resources and services.